ONEWEB-0032 (45141 NORAD) Tracking and Keplerian Element Data

This shows tracking and keplerian element data for the satellite.

Feedback or suggestion? Click here.




ElementValue
Catalog45141
NameONEWEB-0032
Epoch Orbit937
Epoch Day93.7363562
Epoch Year2020
RAAN145.4734
Inclination87.5528
Eccentricity0.0022236
Argument of Perigee104.6843
Mean Anonmoly255.6852
Mean Motion14.90593758
Decay Rate-0.00284963
L11 45141U 20008L 20093.73635620 -.00284963 00000-0 -30213-1 0 9995
L22 45141 87.5528 145.4734 0022236 104.6843 255.6852 14.90593758 9374

Live tracking and technical data element details for ONEWEB-0032 (NORAD 45141). ONEWEB-0032 can be tracked NOW for your location showing map with azimuth and elevation plus other details from your city location.

Track the satellite on the map from your city or location and see movement details for azimuth, elevation, latitude, longitude, range, height, and movement on the map or in text.







IsCatalogInMostPopularTable: catalog: 45141, numindb: 11
Update: records affected: 1



GetName: 45141 ONEWEB-0032

Hit Count: updated at: Mon, 06 Apr 2020 11:00:38 GMT